Showing default

FLOCK 4G 27, 62641

Orbit data source: Space-Track

FLOCK 4G 27, 62641 is a payload satellite owned by Planet (US) in SSO that was launched on Tue, 14 Jan 2025 UTC via an FALCON 9 launch vehicle from the Air Force Western Test Range (AFWTR). Payload-class satellites include a variety of spacecraft equipped with specific instruments for various scientific and technological missions. These include communications satellites like Starlink; space stations such as the ISS; scientific satellites like the Hubble; Earth observation satellites from companies like Planet Labs, Umbra, and HawkEye 360; GPS; miniature CubeSats for education and research; and military/defense satellites.

Loading next visibility...
Identifier
62641, 2025-009AJ
Orbit
SSO
Country
Flag of USUS
Related business
Manufacturer
Planet
Mission
Operational Commercial Imaging
Bus & Motor
CUBESAT 3U, Unknown motor
Mass
5.7 kg wet, 5.7 kg dry
Launch date (UTC)
2025-01-14 (7 months ago)
Launch vehicle
FALCON 9
Launch site
Air Force Western Test Range (AFWTR)
Object type
Payload
Rocket body
Debris
Shape & HBR
Box + 2 Pan, 0.1 m
Radar Cross Section
0.035 m², Medium (>0.1 m² and < 1m²)

Expand to show TLE details & history
Last TLE update: 21 hours ago

TLE from 21 hours ago
0 FLOCK 4G 27
1 62641U 25009AJ  25241.18207819  .00012153  00000-0  53843-3 0  9993
2 62641  97.4202 320.3678 0001588 227.3247 132.7855 15.21772111 34379
Epoch: 2025-08-29T04:22Z
TLE epoch observation values (Epoch: 2025-08-29T04:22:11.555Z)
Latitude
-0.00008°
Longitude
-82.81474°
Altitude
504.33 km
Speed
7.612 km/s
True Right ascension
21h 21m 28s
True Declination
0° 00' 00"
Sunlit
Object was in full shadow at epoch
Visualization orbit readout
Latitude
Unknown
Longitude
Unknown
Altitude
Unknown
Speed
Unknown
Apparent Right ascension
Unknown
Apparent Declination
Unknown
Sunlit
N/A
Visualization observer readout
Local Sidereal Time
17:00:36
Azimuth
Unknown
Elevation
Unknown
Doppler factor
Unknown
Orbital elements
Apogee altitude
498.551 km
Perigee altitude
496.368 km
Semi-major axis
6,875.596 km
Eccentricity
0.00016
Inclination
97.4202°
RAAN
320.3678°
Arg. of periapsis
227.3247°
True anomaly
132.79885°
Mean anomaly
132.7855°
Eccentric anomaly
132.79218°
Mean motion
3.80695 °/min
Orbital period
94.56 mins
BSTAR
0.00053843
Loading maneuver chart data...
Computing Atmospheric mass density...
Loading historical data...
Loading historical data...
Loading historical data...
Loading historical data...
Loading historical data...
Loading historical data...
Loading historical data...

Documentation

Showing up to 5 results
|